TimeCST,TemperatureF,Dew PointF,Humidity,Sea Level PressureIn,VisibilityMPH,Wind Direction,Wind SpeedMPH,Gust SpeedMPH,PrecipitationIn,Events,Conditions,WindDirDegrees,DateUTC
1:53 AM,66.9,39.0,36,29.82,10.0,NNW,24.2,40.3,N/A,,Clear,330,2013-03-05 07:53:00
2:23 AM,64.0,36.0,35,29.94,10.0,North,28.8,42.6,N/A,,Clear,360,2013-03-05 08:23:00
2:53 AM,54.0,37.9,55,29.94,10.0,NNE,24.2,36.8,N/A,,Clear,20,2013-03-05 08:53:00
3:53 AM,50.0,35.1,57,30.04,10.0,North,19.6,29.9,N/A,,Clear,360,2013-03-05 09:53:00
4:53 AM,48.0,34.0,58,30.12,9.0,NNW,23.0,33.4,N/A,,Overcast,340,2013-03-05 10:53:00
5:53 AM,48.0,32.0,54,30.15,10.0,North,17.3,28.8,N/A,,Clear,360,2013-03-05 11:53:00
7:53 AM,46.9,27.0,46,30.25,10.0,North,18.4,28.8,N/A,,Clear,360,2013-03-05 13:53:00
8:53 AM,48.9,19.0,31,30.28,10.0,North,20.7,33.4,N/A,,Clear,10,2013-03-05 14:53:00
9:53 AM,51.1,16.0,25,30.30,10.0,North,19.6,33.4,N/A,,Clear,10,2013-03-05 15:53:00
10:53 AM,55.0,16.0,22,30.32,10.0,North,21.9,31.1,N/A,,Clear,350,2013-03-05 16:53:00
11:53 AM,57.9,12.9,17,30.32,10.0,North,16.1,25.3,N/A,,Clear,360,2013-03-05 17:53:00
12:53 PM,60.1,10.9,14,30.30,10.0,North,15.0,25.3,N/A,,Clear,360,2013-03-05 18:53:00
1:53 PM,62.1,10.9,13,30.28,10.0,North,16.1,27.6,N/A,,Clear,10,2013-03-05 19:53:00
2:53 PM,63.0,8.1,11,30.28,10.0,North,9.2,23.0,N/A,,Clear,360,2013-03-05 20:53:00
3:53 PM,63.0,6.1,11,30.29,10.0,North,10.4,20.7,N/A,,Clear,350,2013-03-05 21:53:00
4:53 PM,64.0,6.1,10,30.30,10.0,North,11.5,-,N/A,,Clear,350,2013-03-05 22:53:00
5:53 PM,60.1,3.9,11,30.31,10.0,North,12.7,20.7,N/A,,Clear,350,2013-03-05 23:53:00
6:53 PM,54.0,6.1,15,30.33,10.0,North,6.9,-,N/A,,Clear,360,2013-03-06 00:53:00
7:53 PM,50.0,8.1,18,30.34,10.0,North,6.9,-,N/A,,Clear,350,2013-03-06 01:53:00
8:53 PM,46.9,9.0,21,30.35,10.0,North,6.9,-,N/A,,Clear,360,2013-03-06 02:53:00
9:53 PM,46.0,10.9,24,30.38,10.0,NNW,6.9,-,N/A,,Clear,340,2013-03-06 03:53:00
10:53 PM,44.1,12.0,27,30.38,10.0,NNW,8.1,-,N/A,,Clear,340,2013-03-06 04:53:00
11:53 PM,43.0,12.0,28,30.38,10.0,North,5.8,-,N/A,,Clear,350,2013-03-06 05:53:00